YAOGAN-35 05B (53761 NORAD) Tracking and Keplerian Element Data

This shows tracking and keplerian element data for the satellite.

Feedback or suggestion? Click here.




ElementValue
Catalog53761
NameYAOGAN-35 05B
Epoch Orbit1157
Epoch Day325.2824085
Epoch Year2022
RAAN266.8103
Inclination34.9974
Eccentricity0.0012548
Argument of Perigee262.6415
Mean Anonmoly222.6381
Mean Motion15.22887212
Decay Rate0.00011273
L11 53761U 22109B 22325.28240850 .00011273 00000+0 46933-3 0 9990
L22 53761 34.9974 266.8103 0012548 262.6415 222.6381 15.22887212 11578



Live tracking and technical data element details for YAOGAN-35 05B (NORAD 53761). YAOGAN-35 05B can be tracked NOW for your location showing map with azimuth and elevation plus other details from your city location.







IsCatalogInMostPopularTable: catalog: 53761, numindb: -1

Insert: records affected: 1


GetName: 53761 YAOGAN-35 05B

Hit Count: inserted at: Thu, 08 Dec 2022 08:40:08 GMT